Location: Tel Aviv
(32.0670°N, 34.7670°E)
Time: 09:56:00
(UTC+02:00)

deb Explorer IX - All Passes

Search period start: 05 December 2023 00:00
Search period end: 15 December 2023 00:00
Orbit: 524 x 935 km, 38.8° (Epoch: 05 December)

Date Brightness Start Highest point End Pass type
(mag) Time Alt. Az. Time Alt. Az. Time Alt. Az.
05 Dec - 01:14:35 10° WNW 01:19:29 70° NNE 01:25:02 10° ESE night (unlit)
05 Dec - 02:59:29 10° W 03:04:20 36° SSW 03:09:42 10° SSE visible
05 Dec - 19:08:45 10° SSW 19:12:21 34° SSE 19:16:06 10° E visible
05 Dec - 20:52:56 10° W 20:56:55 55° NNW 21:01:15 10° ENE night (unlit)
05 Dec - 22:38:12 10° WNW 22:42:10 34° N 22:46:33 10° ENE night (unlit)
06 Dec - 00:22:55 10° WNW 00:27:30 55° NNE 00:32:41 10° E night (unlit)
06 Dec - 02:07:33 10° WNW 02:12:26 50° SSW 02:17:55 10° SE night (unlit)
06 Dec - 03:54:56 10° WSW 03:56:59 12° SW 03:59:05 10° SSW visible
06 Dec - 18:17:37 10° SSW 18:20:42 22° SE 18:23:49 10° E visible
06 Dec - 20:01:05 10° WSW 20:05:03 74° NNW 20:09:17 10° ENE visible
06 Dec - 21:46:19 10° WNW 21:50:08 34° N 21:54:19 10° ENE night (unlit)
06 Dec - 23:31:12 10° WNW 23:35:29 44° NNE 23:40:17 10° E night (unlit)
07 Dec - 01:15:42 10° WNW 01:20:29 69° SSW 01:25:55 10° SE night (unlit)
07 Dec - 03:01:38 10° WSW 03:05:06 18° SW 03:08:47 10° S visible
07 Dec - 17:26:59 10° S 17:29:00 14° SE 17:31:01 10° ESE visible
07 Dec - 19:09:15 10° WSW 19:13:13 78° SSE 19:17:18 10° ENE visible
07 Dec - 20:54:20 10° WNW 20:58:06 37° N 21:02:09 10° ENE night (unlit)
07 Dec - 22:39:25 10° WNW 22:43:25 37° N 22:47:49 10° ENE night (unlit)
08 Dec - 00:23:53 10° WNW 00:28:29 87° NNE 00:33:43 10° ESE night (unlit)
08 Dec - 02:09:06 10° W 02:13:09 25° SW 02:17:36 10° SSE night (unlit)
08 Dec - 18:17:30 10° SW 18:21:22 50° SSE 18:25:15 10° ENE visible
08 Dec - 20:02:16 10° W 20:06:04 43° NNW 20:10:03 10° ENE visible
08 Dec - 21:47:32 10° WNW 21:51:18 33° N 21:55:23 10° ENE night (unlit)
08 Dec - 23:32:05 10° WNW 23:36:27 65° NNE 23:41:22 10° ESE night (unlit)
09 Dec - 01:16:52 10° W 01:21:10 35° SSW 01:25:58 10° SSE night (unlit)
09 Dec - 17:25:52 10° SSW 17:29:31 32° SSE 17:33:05 10° E visible
09 Dec - 19:10:08 10° W 19:14:02 55° NNW 19:18:01 10° ENE visible
09 Dec - 20:55:32 10° WNW 20:59:10 31° N 21:03:01 10° ENE night (unlit)
09 Dec - 22:40:15 10° WNW 22:44:22 50° NNE 22:48:55 10° E night (unlit)
10 Dec - 00:24:47 10° WNW 00:29:09 49° SSW 00:34:03 10° SE night (unlit)
10 Dec - 02:12:32 10° SW 02:13:36 11° SW 02:14:42 10° SSW night (unlit)
10 Dec - 16:34:27 10° SSW 16:37:37 21° SE 16:40:41 10° E daylight
10 Dec - 18:17:59 10° WSW 18:22:01 77° NNW 18:26:00 10° ENE visible
10 Dec - 20:03:22 10° WNW 20:06:59 32° N 20:10:44 10° ENE visible
10 Dec - 21:48:21 10° WNW 21:52:13 39° NNE 21:56:24 10° E night (unlit)
10 Dec - 23:32:46 10° WNW 23:37:05 70° SSW 23:41:55 10° SE night (unlit)
11 Dec - 01:18:42 10° WSW 01:21:34 16° SW 01:24:38 10° S night (unlit)
11 Dec - 15:43:30 10° S 15:45:41 14° SE 15:47:47 10° ESE daylight
11 Dec - 17:25:52 10° WSW 17:29:59 73° SSE 17:33:57 10° ENE visible
11 Dec - 19:11:05 10° W 19:14:48 36° N 19:18:32 10° ENE visible
11 Dec - 20:56:20 10° WNW 21:00:00 34° N 21:03:54 10° ENE night (unlit)
11 Dec - 22:40:48 10° WNW 22:44:58 83° NNE 22:49:36 10° ESE night (unlit)
12 Dec - 00:25:58 10° W 00:29:31 23° SW 00:33:23 10° SSE night (unlit)
12 Dec - 16:33:48 10° SW 16:37:55 48° SSE 16:41:48 10° ENE daylight
12 Dec - 18:18:42 10° W 18:22:35 44° NNW 18:26:25 10° ENE visible
12 Dec - 20:04:10 10° WNW 20:07:45 31° N 20:11:25 10° ENE visible
12 Dec - 21:48:48 10° WNW 21:52:49 60° NNE 21:57:09 10° E night (unlit)
12 Dec - 23:33:33 10° W 23:37:24 33° SSW 23:41:38 10° SSE night (unlit)
13 Dec - 15:41:52 10° SSW 15:45:50 32° SSE 15:49:31 10° E daylight
13 Dec - 17:26:15 10° W 17:30:22 58° NNW 17:34:19 10° ENE visible
13 Dec - 19:11:51 10° WNW 19:15:26 30° N 19:19:01 10° ENE visible
13 Dec - 20:56:44 10° WNW 21:00:35 45° NNE 21:04:38 10° E night (unlit)
13 Dec - 22:41:16 10° WNW 22:45:16 49° SSW 22:49:37 10° SE night (unlit)
14 Dec - 14:50:08 10° SSW 14:53:41 22° SE 14:56:59 10° E daylight
14 Dec - 16:33:47 10° WSW 16:38:08 82° NNW 16:42:11 10° ENE daylight
14 Dec - 18:19:22 10° WNW 18:23:04 33° N 18:26:42 10° ENE visible
14 Dec - 20:04:33 10° WNW 20:08:16 36° N 20:12:03 10° E visible
14 Dec - 21:49:03 10° WNW 21:53:04 73° SSW 21:57:23 10° ESE night (unlit)
14 Dec - 23:35:02 10° WSW 23:37:25 15° SW 23:39:55 10° S night (unlit)
